Weather in Krutikha

Russia / Kurgan Oblast     56°09′59″N   63°09′18″E
temp.,
°C
wind,
m/s
gust,
m/s
humid.,
%
clouds,
%
prec.,
mm/h
press.,
hPa
HPBL,
m
24 june, thu
thu2423:00+13n38635 0.0 1018119
02:00+9ne37755 0.0 1019111
05:00+8nne23756 0.0 102038
08:00+14nnw23595 0.0 1020404
11:00+18n344594 0.0 10191334
14:00+20nnw354293 0.0 10181553
17:00+21nnw1442100 0.0 10171551
20:00+17s3557100 0.0 101586
25 june, fri
fri2523:00+17ssw2359100 0.0 101461
02:00+15ssw3579100 0.3 101285
05:00+15wnw2387100 0.3 101172
08:00+18nw347831 0.0 1011312
11:00+23nne346214 0.0 10111042
14:00+25ne34512 0.0 10111443
17:00+25nne344979 0.0 10111902
20:00+22ene336316 0.0 101144
26 june, sat
sat2623:00+17ese465969 0.0 101176
02:00+15sse346553 0.0 101261
05:00+15s356696 0.0 101299
08:00+20ssw356365 0.0 1011311
11:00+24ssw5554100 0.0 10101037
14:00+23ssw5867100 0.8 1009661
17:00+25s5770100 2.8 1006931
20:00+20ssw369491 14.0 1007183
27 june, sun
sun2723:00+17w22970 15.1 100733
02:00+17n22962 0.0 100738
05:00+16n379832 0.0 1008201
08:00+17n5892100 0.0 1009546
11:00+21n566924 0.0 1010905
14:00+23nnw5761100 0.1 10101460
17:00+22nnw57625 0.1 10101153
20:00+20n487378 0.1 1011332
28 june, mon
mon2823:00+15nne37930 0.1 1013146
02:00+13n38961 0.0 1014183
05:00+12n379820 0.0 1015199
08:00+16n467941 0.0 1016651
11:00+19nne446692 0.0 10161164
14:00+20nne3360100 0.0 10171345
17:00+21ne235870 0.0 1017767
20:00+20w016817 0.0 101711